[TLELIST] Archives

 

Current TLEs

September 6th 2007 PDT

HST 1 20580U 90037B 07249.43365858 .00000345 00000-0 13873-4 0 9547 2 20580 028.4678 020.3096 0003918 237.0242 122.9970 15.00275578752175 ISS (ZARYA) 1 25544U 98067A 07249.34734486 .00016536 00000-0 10518-3 0 9305 2 25544 051.6356 045.0635 0008528 337.1420 100.7838 15.76582181503586 CXO 1 25867U 99040B 07249.58333333 .00000098 00000-0 10000-3 0 1097 2 25867 062.3188 087.4735 6345872 282.8123 351.7340 00.37798799 2557 ____________________________________________________________________ These 2-Line ...Continue Reading

Current TLEs

September 5th 2007 PDT

HST 1 20580U 90037B 07247.83709252 .00000340 00000-0 13519-4 0 9530 2 20580 028.4679 030.7196 0003943 220.5921 139.4373 15.00274982751932 ISS (ZARYA) 1 25544U 98067A 07248.52986472 .00016132 00000-0 10285-3 0 9244 2 25544 051.6355 049.2762 0008454 333.4624 141.5963 15.76552475503456 CXO 1 25867U 99040B 07246.95833333 .00000132 00000-0 10000-3 0 1088 2 25867 062.3046 087.5299 6343627 282.8848 354.3131 00.37800726 2546 ____________________________________________________________________ These 2-Line ...Continue Reading

Current TLEs

September 4th 2007 PDT

HST 1 20580U 90037B 07245.84138469 +.00000349 +00000-0 +14192-4 0 09644 2 20580 028.4675 043.7331 0003951 200.6995 159.3435 15.00274285751635 ISS (ZARYA) 1 25544U 98067A 07247.51305353 .00015068 00000-0 96511-4 0 9182 2 25544 051.6360 054.5179 0008257 329.1059 131.1050 15.76514740503295 CXO 1 25867U 99040B 07246.95833333 .00000132 00000-0 10000-3 0 1088 2 25867 062.3046 087.5299 6343627 282.8848 354.3131 00.37800726 2546 ____________________________________________________________________ These 2-Line ...Continue Reading

Current TLEs

September 3rd 2007 PDT

HST 1 20580U 90037B 07244.91005417 +.00000340 +00000-0 +13529-4 0 09528 2 20580 028.4674 049.8058 0003968 191.7285 168.3214 15.00273872751497 ISS (ZARYA) 1 25544U 98067A 07246.36907551 .00012087 00000-0 78420-4 0 9112 2 25544 051.6358 060.4157 0008327 323.0488 120.2194 15.76466463503118 CXO 1 25867U 99040B 07246.95833333 .00000132 00000-0 10000-3 0 1088 2 25867 062.3046 087.5299 6343627 282.8848 354.3131 00.37800726 2546 ____________________________________________________________________ These 2-Line ...Continue Reading

Current TLEs

September 2nd 2007 PDT

HST 1 20580U 90037B 07244.84353059 .00000339 00000-0 13386-4 0 9516 2 20580 028.4674 050.2400 0003968 191.2556 168.7946 15.00273828751486 ISS (ZARYA) 1 25544U 98067A 07245.35264343 .00011575 00000-0 75360-4 0 9048 2 25544 051.6358 065.6539 0008452 320.9594 109.9083 15.76438112502954 CXO 1 25867U 99040B 07244.33333333 .00000243 00000-0 10000-3 0 1075 2 25867 062.2828 087.6120 6343106 282.9112 356.9693 00.37807132 2532 ____________________________________________________________________ These 2-Line ...Continue Reading

Current TLEs

September 1st 2007 PDT

HST 1 20580U 90037B 07243.57958164 .00000334 00000-0 13066-4 0 9502 2 20580 028.4673 058.4831 0003989 179.7104 180.3486 15.00273329751290 ISS (ZARYA) 1 25544U 98067A 07244.53398294 .00012195 00000-0 79238-4 0 8990 2 25544 051.6354 069.8724 0008339 317.3222 144.3989 15.76420517502828 CXO 1 25867U 99040B 07244.33333333 .00000243 00000-0 10000-3 0 1075 2 25867 062.2828 087.6120 6343106 282.9112 356.9693 00.37807132 2532 ____________________________________________________________________ These 2-Line ...Continue Reading

Current TLEs

August 31st 2007 PDT

HST 1 20580U 90037B 07241.84996683 .00000325 00000-0 12318-4 0 9495 2 20580 028.4673 069.7592 0003978 161.1626 198.9110 15.00272658751036 ISS (ZARYA) 1 25544U 98067A 07243.51841635 .00014255 00000-0 91969-4 0 8926 2 25544 051.6348 075.1071 0008484 311.2752 143.1703 15.76403194502663 CXO 1 25867U 99040B 07241.70833333 +.00000312 +00000-0 +00000-0 0 01037 2 25867 062.2596 087.6929 6341209 282.9081 359.7119 00.37808800002535 ____________________________________________________________________ These 2-Line ...Continue Reading

Current TLEs

August 30th 2007 PDT

HST 1 20580U 90037B 07241.84996683 .00000325 00000-0 12318-4 0 9495 2 20580 028.4673 069.7592 0003978 161.1626 198.9110 15.00272658751036 ISS (ZARYA) 1 25544U 98067A 07242.12441207 .00015318 00000-0 98674-4 0 8867 2 25544 051.6354 082.2921 0008347 306.5968 151.5684 15.76366005502443 CXO 1 25867U 99040B 07241.70833333 +.00000312 +00000-0 +00000-0 0 01037 2 25867 062.2596 087.6929 6341209 282.9081 359.7119 00.37808800002535 ____________________________________________________________________ These 2-Line ...Continue Reading

Current TLEs

August 29th 2007 PDT

HST 1 20580U 90037B 07239.92078121 +.00000297 +00000-0 +10128-4 0 09494 2 20580 028.4673 082.3467 0003975 141.7909 218.2962 15.00271867750742 ISS (ZARYA) 1 25544U 98067A 07241.48450932 .00014744 00000-0 95233-4 0 8804 2 25544 051.6354 085.5891 0008196 304.0450 120.2932 15.76343987502348 CXO 1 25867U 99040B 07236.54810494 .00000246 00000-0 10000-3 0 1069 2 25867 062.2272 087.8201 6332008 282.9445 017.3778 00.37804656 2513 ____________________________________________________________________ These 2-Line ...Continue Reading

Current TLEs

August 28th 2007 PDT

HST 1 20580U 90037B 07239.85425759 .00000290 00000-0 96364-5 0 9477 2 20580 028.4673 082.7804 0003962 141.1168 218.9710 15.00271797750737 ISS (ZARYA) 1 25544U 98067A 07240.47050058 .00012723 00000-0 82907-4 0 8738 2 25544 051.6352 090.8149 0008144 299.5313 126.6153 15.76304255502182 CXO 1 25867U 99040B 07239.08333333 .00000292 00000-0 00000+0 0 1047 2 25867 062.2420 087.7600 6336042 282.9058 002.4209 00.37806137 2523 ____________________________________________________________________ These 2-Line ...Continue Reading
  • This mailing list is a public mailing list - anyone may join or leave, at any time.
  • This mailing list is announce-only.

International Space Station (ISS) / Hubble Space Telescope (HST) / Chandra X-Ray Observatory Orbital Data via EMAIL

Privacy Policy:

Private list